Scottsbluff, NE

5:56 AM MDT on October 15, 2019 (GMT -0600)
Heilig

Weather History for KBFF - August, 2019

Change the Weather History Date:

Saturday, August 10, 2019

  Actual Average Record
Temperature  
Mean Temperature 74 °F -  
Max Temperature 87 °F 84 °F 102 °F (1935)
Min Temperature 62 °F 56 °F 44 °F (1902)
Cooling Degree Days 10    
Growing Degree Days 24 (Base 50)    
Moisture  
Dew Point 64 °F    
Average Humidity 71    
Maximum Humidity 97    
Minimum Humidity 33    
Precipitation  
Precipitation 0.00 in - - ()
Sea Level Pressure  
Sea Level Pressure 29.87 in    
Wind  
Wind Speed 6 mph (East)    
Max Wind Speed 14 mph    
Max Gust Speed -    
Visibility 10 miles    
Events      
Averages and records for this station are not official NWS values.
T = Trace of Precipitation, MM = Missing Value Source: NWS Daily Summary

Daily Weather History Graph

Daily Weather History Graph

Search for Another Location

Airport or City:

Astronomy

Aug. 10, 2019 Rise Set
Actual Time 5:57 AM MDT 8:01 PM MDT
Civil Twilight 5:26 AM MDT 8:32 PM MDT
Nautical Twilight 4:49 AM MDT 9:09 PM MDT
Astronomical Twilight 4:08 AM MDT 9:50 PM MDT
Moon 4:48 PM MDT (8/10) 1:33 AM MDT (8/10)
Length of Visible Light 15h 05m
Length of Day
14h 04m
Waxing Gibbous, 80% of the Moon is Illuminated
Aug 10
Waxing Gibbous
Aug 15
Full
Aug 23
Last Quarter
Aug 30
New
Sep 5
First Quarter

Hourly Weather History & Observations

Time (MDT) Temp. Heat Index Dew Point Humidity Pressure Visibility Wind Dir Wind Speed Gust Speed Precip Events Conditions
12:53 AM 68.0 °F - 62.1 °F 81% 29.80 in 10.0 mi SW 10.4 mph - N/A   Clear
1:53 AM 69.1 °F - 64.0 °F 84% 29.81 in 10.0 mi ESE 5.8 mph - N/A   Clear
2:53 AM 66.0 °F - 63.0 °F 90% 29.81 in 10.0 mi ENE 4.6 mph - N/A   Clear
3:53 AM 64.0 °F - 62.1 °F 93% 29.81 in 10.0 mi NNW 5.8 mph - N/A   Clear
4:53 AM 63.0 °F - 62.1 °F 97% 29.81 in 10.0 mi NNW 3.5 mph - N/A   Clear
5:53 AM 63.0 °F - 62.1 °F 97% 29.84 in 9.0 mi WNW 6.9 mph - N/A   Clear
6:53 AM 63.0 °F - 61.0 °F 93% 29.86 in 9.0 mi NW 5.8 mph - N/A   Clear
7:53 AM 69.1 °F - 63.0 °F 81% 29.88 in 10.0 mi NW 5.8 mph - N/A   Clear
8:53 AM 73.0 °F - 64.0 °F 73% 29.90 in 10.0 mi West 4.6 mph - N/A   Clear
9:53 AM 75.9 °F - 66.0 °F 71% 29.90 in 10.0 mi Variable 3.5 mph - N/A   Clear
10:53 AM 77.0 °F - 66.0 °F 69% 29.90 in 10.0 mi South 4.6 mph - N/A   Clear
11:53 AM 78.1 °F - 66.9 °F 68% 29.90 in 10.0 mi Calm Calm - N/A   Clear
12:53 PM 80.1 °F 82.7 °F 68.0 °F 67% 29.89 in 10.0 mi East 5.8 mph - N/A   Clear
1:53 PM 80.1 °F 82.7 °F 68.0 °F 67% 29.89 in 10.0 mi ESE 4.6 mph - N/A   Clear
2:53 PM 81.0 °F 83.8 °F 68.0 °F 65% 29.89 in 10.0 mi NE 5.8 mph - N/A   Clear
3:53 PM 82.9 °F 85.4 °F 66.9 °F 58% 29.87 in 10.0 mi East 5.8 mph - N/A   Clear
4:53 PM 82.0 °F 83.4 °F 64.0 °F 54% 29.84 in 10.0 mi ESE 3.5 mph - N/A   Clear
5:53 PM 87.1 °F 87.5 °F 62.1 °F 43% 29.83 in 10.0 mi NE 5.8 mph - N/A   Clear
6:53 PM 82.0 °F 83.8 °F 64.9 °F 56% 29.84 in 10.0 mi ENE 8.1 mph - N/A   Clear
7:53 PM 75.9 °F - 64.9 °F 69% 29.86 in 10.0 mi East 6.9 mph - N/A   Mostly Cloudy
8:53 PM 75.0 °F - 66.9 °F 76% 29.87 in 10.0 mi SE 6.9 mph - N/A   Mostly Cloudy
9:53 PM 73.9 °F - 64.0 °F 71% 29.89 in 10.0 mi SE 8.1 mph - N/A   Mostly Cloudy
10:53 PM 71.1 °F - 63.0 °F 75% 29.91 in 10.0 mi East 10.4 mph - N/A   Scattered Clouds
11:07 PM 73.0 °F - 62.1 °F 68% 30.06 in 10.0 mi East 13.8 mph - N/A   Mostly Cloudy
11:53 PM 71.1 °F - 62.1 °F 73% 29.92 in 10.0 mi ESE 9.2 mph - N/A   Mostly Cloudy